This is the latest recevied weather packets stored in our database for station/object KG7MRB. If no packets are shown the sender has not sent any weather packets the latest 10 day(s).
| Time | Temp. | Humidity | Pressure | Rain* | Wind** | Luminosity | Snow |
|---|---|---|---|---|---|---|---|
| 1778194956 | 17.78° C | 68% | 1035.9 hPa | 0 mm | - | 285 W/m² | - |
| 1778194655 | 17.78° C | 68% | 1035.9 hPa | 0 mm | - | 270 W/m² | - |
| 1778194352 | 17.78° C | 66% | 1036.1 hPa | 0 mm | - | 258 W/m² | - |
| 1778194047 | 17.78° C | 66% | 1035.8 hPa | 0 mm | - | 275 W/m² | - |
| 1778193744 | 17.78° C | 69% | 1036 hPa | 0 mm | - | 282 W/m² | - |
| 1778193440 | 17.22° C | 66% | 1036 hPa | 0 mm | - | 289 W/m² | - |
| 1778193137 | 17.22° C | 67% | 1036.2 hPa | 0 mm | - | 283 W/m² | - |
| 1778192834 | 17.78° C | 66% | 1036.2 hPa | 0 mm | - | 299 W/m² | - |
| 1778192530 | 17.22° C | 67% | 1036.4 hPa | 0 mm | - | 300 W/m² | - |
| 1778192227 | 17.78° C | 64% | 1036.4 hPa | 0 mm | - | 311 W/m² | - |
| 1778191923 | 17.78° C | 64% | 1036.4 hPa | 0 mm | - | 315 W/m² | - |
| 1778191620 | 17.78° C | 63% | 1036.5 hPa | 0 mm | - | 348 W/m² | - |
| 1778191319 | 17.78° C | 64% | 1036.6 hPa | 0 mm | - | 359 W/m² | - |
| 1778191014 | 17.78° C | 64% | 1036.6 hPa | 0 mm | - | 355 W/m² | - |
| 1778190712 | 17.22° C | 65% | 1036.7 hPa | 0 mm | - | 354 W/m² | - |
| 1778190409 | 16.67° C | 67% | 1036.7 hPa | 0 mm | - | 379 W/m² | - |
| 1778190105 | 17.22° C | 68% | 1036.9 hPa | 0 mm | - | 385 W/m² | - |
| 1778189801 | 17.22° C | 66% | 1036.7 hPa | 0 mm | - | 358 W/m² | - |
| 1778189499 | 16.67° C | 71% | 1036.8 hPa | 0 mm | - | 351 W/m² | - |
| 1778189195 | 16.67° C | 68% | 1037 hPa | 0 mm | - | 354 W/m² | - |
| 1778188892 | 16.67° C | 67% | 1037 hPa | 0 mm | - | 374 W/m² | - |
| 1778188589 | 16.67° C | 70% | 1037.1 hPa | 0 mm | - | 363 W/m² | - |
| 1778188284 | 16.11° C | 72% | 1037.1 hPa | 0 mm | - | 315 W/m² | - |
| 1778187982 | 16.11° C | 73% | 1037 hPa | 0 mm | - | 287 W/m² | - |
| 1778187679 | 16.11° C | 73% | 1037.2 hPa | 0 mm | - | 249 W/m² | - |
* Rain latest hour (hover to see other rain measurements)
** Current wind speed in m/s (hover to see current wind gust speed)